Owosso, MI

2:49 PM EST on December 17, 2017 (GMT -0500)
Owosso

Weather History for KRNP - July, 2013

Change the Weather History Date:

Saturday, July 20, 2013

  Actual Average (KFNT) Record (KFNT)
Temperature  
Mean Temperature 77 °F -  
Max Temperature 86 °F 82 °F 102 °F (1930)
Min Temperature 67 °F 61 °F 41 °F (1965)
Cooling Degree Days 12    
Growing Degree Days 27 (Base 50)    
Moisture  
Dew Point 64 °F    
Average Humidity 67    
Maximum Humidity 96    
Minimum Humidity 35    
Precipitation  
Precipitation 0.00 in - - ()
Sea Level Pressure  
Sea Level Pressure 29.85 in    
Wind  
Wind Speed 6 mph (NW)    
Max Wind Speed 15 mph    
Max Gust Speed 22 mph    
Visibility 10 miles    
Events      
Averages and records for this station are not official NWS values.
T = Trace of Precipitation, MM = Missing Value Source: NWS Daily Summary

Daily Weather History Graph

Daily Weather History Graph

Search for Another Location

Airport or City:

Trip Planner

Search our weather history database for the weather conditions in past years. The results will help you decide how hot, cold, wet, or windy it might be!

Date:

Astronomy

Jul. 20, 2013 Rise Set
Actual Time 6:15 AM EDT 9:09 PM EDT
Civil Twilight 5:42 AM EDT 9:43 PM EDT
Nautical Twilight 4:59 AM EDT 10:25 PM EDT
Astronomical Twilight 4:09 AM EDT 11:14 PM EDT
Moon 7:11 PM EDT (7/20) 3:54 AM EDT (7/20)
Length of Visible Light 16h 00m
Length of Day
14h 53m
Waxing Gibbous, 93% of the Moon is Illuminated
Jul 20
Waxing Gibbous
Jul 22
Full
Jul 29
Last Quarter
Aug 6
New
Aug 14
First Quarter

Hourly Weather History & Observations

Time (EDT) Temp. Heat Index Dew Point Humidity Pressure Visibility Wind Dir Wind Speed Gust Speed Precip Events Conditions
12:14 AM 82.8 °F 87.4 °F 71.4 °F 68% 29.75 in 10.0 mi WSW 15.0 mph 21.9 mph N/A   Clear
12:35 AM 81.7 °F 85.6 °F 70.7 °F 69% 29.74 in 10.0 mi WSW 6.9 mph 17.3 mph N/A   Clear
12:55 AM 80.6 °F 83.9 °F 70.0 °F 70% 29.75 in 10.0 mi West 6.9 mph 10.4 mph N/A   Scattered Clouds
1:15 AM 79.7 °F - 70.0 °F 72% 29.76 in 10.0 mi West 8.1 mph - N/A   Mostly Cloudy
1:35 AM 78.8 °F - 70.2 °F 75% 29.77 in 10.0 mi West 12.7 mph - N/A   Overcast
1:54 AM 78.4 °F - 70.0 °F 75% 29.77 in 10.0 mi West 8.1 mph - N/A   Overcast
2:15 AM 77.7 °F - 70.5 °F 78% 29.76 in 10.0 mi WNW 8.1 mph - N/A   Overcast
2:34 AM 77.0 °F - 70.7 °F 81% 29.76 in 10.0 mi NNW 4.6 mph - N/A   Scattered Clouds
2:55 AM 76.1 °F - 67.5 °F 74% 29.77 in 10.0 mi NNW 4.6 mph - N/A   Scattered Clouds
3:15 AM 75.0 °F - 67.6 °F 78% 29.76 in 10.0 mi NNW 5.8 mph - N/A   Scattered Clouds
3:34 AM 73.9 °F - 68.2 °F 82% 29.78 in 10.0 mi Calm Calm - N/A   Scattered Clouds
3:55 AM 72.5 °F - 68.5 °F 87% 29.77 in 10.0 mi North 3.5 mph - N/A   Scattered Clouds
4:15 AM 72.1 °F - 68.9 °F 89% 29.77 in 10.0 mi North 3.5 mph - N/A   Clear
4:34 AM 71.6 °F - 69.3 °F 92% 29.77 in 10.0 mi North 3.5 mph - N/A   Scattered Clouds
4:55 AM 71.1 °F - 69.4 °F 95% 29.78 in 10.0 mi Calm Calm - N/A   Scattered Clouds
5:15 AM 71.1 °F - 69.8 °F 96% 29.78 in 10.0 mi North 3.5 mph - N/A   Mostly Cloudy
5:34 AM 71.6 °F - 69.8 °F 94% 29.79 in 10.0 mi North 4.6 mph - N/A   Overcast
5:55 AM 71.6 °F - 69.8 °F 94% 29.80 in 10.0 mi North 3.5 mph - N/A   Mostly Cloudy
6:15 AM 70.7 °F - 69.1 °F 95% 29.81 in 10.0 mi Calm Calm - N/A   Scattered Clouds
6:35 AM 70.2 °F - 69.1 °F 96% 29.82 in 10.0 mi Calm Calm - N/A   Clear
6:55 AM 70.3 °F - 69.3 °F 96% 29.82 in 10.0 mi Calm Calm - N/A   Scattered Clouds
7:14 AM 70.3 °F - 69.1 °F 96% 29.84 in 10.0 mi Calm Calm - N/A   Scattered Clouds
7:35 AM 71.6 °F - 69.8 °F 94% 29.84 in 10.0 mi East 3.5 mph - N/A   Scattered Clouds
7:55 AM 72.5 °F - 68.7 °F 88% 29.84 in 10.0 mi ESE 3.5 mph - N/A   Mostly Cloudy
8:14 AM 72.7 °F - 66.7 °F 82% 29.85 in 10.0 mi ESE 3.5 mph - N/A   Mostly Cloudy
8:35 AM 74.1 °F - 67.6 °F 80% 29.86 in 10.0 mi Calm Calm - N/A   Scattered Clouds
8:55 AM 75.2 °F - 66.9 °F 75% 29.86 in 10.0 mi Calm Calm - N/A   Clear
9:14 AM 75.6 °F - 67.3 °F 75% 29.86 in 10.0 mi SE 3.5 mph - N/A   Clear
9:35 AM 76.5 °F - 66.0 °F 70% 29.86 in 10.0 mi Calm Calm - N/A   Clear
9:55 AM 77.9 °F - 63.3 °F 61% 29.86 in 10.0 mi Calm Calm - N/A   Clear
10:14 AM 79.0 °F - 61.9 °F 56% 29.86 in 10.0 mi Calm Calm - N/A   Clear
10:35 AM 80.1 °F 81.0 °F 60.4 °F 51% 29.86 in 10.0 mi Calm Calm - N/A   Clear
10:55 AM 80.6 °F 81.1 °F 59.4 °F 48% 29.87 in 10.0 mi NNE 5.8 mph - N/A   Clear
11:15 AM 80.6 °F 80.8 °F 57.4 °F 45% 29.87 in 10.0 mi NE 3.5 mph - N/A   Clear
11:35 AM 81.3 °F 80.9 °F 54.5 °F 40% 29.87 in 10.0 mi Calm Calm - N/A   Clear
11:54 AM 81.9 °F 81.3 °F 55.6 °F 40% 29.87 in 10.0 mi NW 6.9 mph - N/A   Clear
12:15 PM 83.3 °F 82.2 °F 54.5 °F 37% 29.87 in 10.0 mi WNW 4.6 mph - N/A   Clear
12:35 PM 83.3 °F 82.2 °F 54.5 °F 37% 29.86 in 10.0 mi West 6.9 mph - N/A   Clear
12:54 PM 83.7 °F 82.4 °F 54.3 °F 36% 29.86 in 10.0 mi WNW 5.8 mph - N/A   Clear
1:15 PM 82.8 °F 82.1 °F 55.9 °F 40% 29.87 in 10.0 mi North 10.4 mph - N/A   Clear
1:35 PM 84.9 °F 83.9 °F 56.7 °F 38% 29.87 in 10.0 mi WNW 8.1 mph - N/A   Clear
1:54 PM 84.9 °F 83.6 °F 54.9 °F 36% 29.87 in 10.0 mi WNW 10.4 mph - N/A   Clear
2:15 PM 85.8 °F 84.3 °F 55.4 °F 35% 29.87 in 10.0 mi WSW 9.2 mph - N/A   Clear
2:34 PM 85.6 °F 84.1 °F 54.9 °F 35% 29.87 in 10.0 mi West 5.8 mph - N/A   Clear
2:55 PM 86.0 °F 84.7 °F 55.8 °F 36% 29.87 in 10.0 mi West 6.9 mph 16.1 mph N/A   Scattered Clouds
3:15 PM 83.8 °F 83.1 °F 57.4 °F 40% 29.86 in 10.0 mi WSW 6.9 mph - N/A   Mostly Cloudy
3:34 PM 83.7 °F 82.8 °F 56.5 °F 39% 29.86 in 10.0 mi West 4.6 mph - N/A   Mostly Cloudy
3:55 PM 85.6 °F 84.8 °F 57.9 °F 39% 29.85 in 10.0 mi WNW 10.4 mph 16.1 mph N/A   Mostly Cloudy
4:15 PM 83.3 °F 82.8 °F 57.6 °F 41% 29.86 in 10.0 mi WNW 10.4 mph - N/A   Mostly Cloudy
4:35 PM 82.4 °F 82.3 °F 58.5 °F 44% 29.86 in 10.0 mi NNW 8.1 mph - N/A   Mostly Cloudy
4:55 PM 81.0 °F 81.2 °F 58.3 °F 46% 29.87 in 10.0 mi NW 11.5 mph - N/A   Mostly Cloudy
5:14 PM 80.1 °F 80.7 °F 58.8 °F 48% 29.87 in 10.0 mi NW 12.7 mph 19.6 mph N/A   Mostly Cloudy
5:35 PM 79.5 °F - 60.3 °F 52% 29.87 in 10.0 mi NW 11.5 mph 19.6 mph N/A   Overcast
5:55 PM 81.3 °F 82.3 °F 61.9 °F 52% 29.87 in 10.0 mi WNW 9.2 mph 17.3 mph N/A   Scattered Clouds
6:15 PM 81.1 °F 81.6 °F 59.7 °F 48% 29.87 in 10.0 mi NW 8.1 mph - N/A   Clear
6:35 PM 79.2 °F - 59.2 °F 50% 29.87 in 10.0 mi NW 8.1 mph - N/A   Scattered Clouds
6:54 PM 78.4 °F - 60.1 °F 53% 29.88 in 10.0 mi NNW 5.8 mph - N/A   Scattered Clouds
7:15 PM 78.3 °F - 60.8 °F 55% 29.88 in 10.0 mi WNW 5.8 mph - N/A   Overcast
7:35 PM 78.1 °F - 63.5 °F 61% 29.89 in 10.0 mi NNW 4.6 mph - N/A   Mostly Cloudy
7:54 PM 77.5 °F - 66.0 °F 68% 29.88 in 10.0 mi Calm Calm - N/A   Scattered Clouds
8:15 PM 76.1 °F - 65.5 °F 70% 29.89 in 10.0 mi North 3.5 mph - N/A   Scattered Clouds
8:35 PM 75.2 °F - 65.7 °F 72% 29.90 in 10.0 mi North 3.5 mph - N/A   Clear
8:54 PM 74.3 °F - 66.0 °F 75% 29.90 in 10.0 mi North 3.5 mph - N/A   Clear
9:15 PM 72.5 °F - 66.2 °F 81% 29.90 in 10.0 mi Calm Calm - N/A   Clear
9:35 PM 70.3 °F - 66.2 °F 87% 29.89 in 10.0 mi Calm Calm - N/A   Clear
9:55 PM 69.8 °F - 66.2 °F 88% 29.91 in 10.0 mi Calm Calm - N/A   Clear
10:15 PM 69.3 °F - 66.6 °F 91% 29.92 in 10.0 mi Calm Calm - N/A   Clear
10:35 PM 68.9 °F - 66.2 °F 91% 29.92 in 10.0 mi NW 3.5 mph - N/A   Clear
10:55 PM 71.4 °F - 66.0 °F 83% 29.94 in 10.0 mi NNW 5.8 mph - N/A   Clear
11:15 PM 70.2 °F - 65.5 °F 85% 29.94 in 10.0 mi North 4.6 mph - N/A   Clear
11:34 PM 69.1 °F - 65.7 °F 89% 29.96 in 10.0 mi North 8.1 mph - N/A   Clear
11:55 PM 67.8 °F - 64.8 °F 90% 29.96 in 10.0 mi North 5.8 mph - N/A   Clear